Location: North Evanston
(42.0634°N, 87.6976°W)
Time: 13:45:00
(UTC+00:00)

Vanguard 3 - Pass Details

Date: 10 May 2026
Orbit: 507 x 3204 km, 33.3° (Epoch: 6 June)

Event Time Altitude Azimuth Distance (km) Brightness Sun altitude
Rises 23:17:21 0° 262° (W) 7,128 13.4 17.3°
Reaches altitude 10° 23:22:27 10° 260° (W) 5,992 13.2 16.3°
Maximum altitude 23:39:51 60° 187° (S) 2,626 9.9 13.2°
Drops below altitude 10° 23:50:41 10° 111° (ESE) 3,897 10.0 11.2°
Sets 23:53:16 0° 107° (ESE) 4,584 10.3 10.7°
